TimeEST,TemperatureF,Dew PointF,Humidity,Sea Level PressureIn,VisibilityMPH,Wind Direction,Wind SpeedMPH,Gust SpeedMPH,PrecipitationIn,Events,Conditions,WindDirDegrees,DateUTC
12:15 AM,46.4,33.8,62,30.12,10.0,SSE,4.6,-,N/A,,Clear,160,2013-01-01 05:15:00
12:35 AM,44.6,33.8,66,30.10,10.0,SE,4.6,-,N/A,,Scattered Clouds,140,2013-01-01 05:35:00
1:15 AM,46.4,35.6,66,30.09,10.0,South,3.5,-,N/A,,Overcast,170,2013-01-01 06:15:00
1:35 AM,44.6,35.6,71,30.09,10.0,Calm,Calm,-,N/A,,Overcast,0,2013-01-01 06:35:00
1:55 AM,46.4,35.6,66,30.08,10.0,South,3.5,-,N/A,,Overcast,180,2013-01-01 06:55:00
2:15 AM,46.4,35.6,66,30.09,10.0,South,4.6,-,N/A,,Overcast,170,2013-01-01 07:15:00
2:35 AM,46.4,35.6,66,30.09,10.0,SSE,3.5,-,N/A,,Overcast,160,2013-01-01 07:35:00
2:55 AM,46.4,37.4,71,30.08,10.0,SSE,4.6,-,N/A,,Overcast,160,2013-01-01 07:55:00
3:15 AM,46.4,37.4,71,30.08,10.0,SSE,5.8,-,N/A,,Overcast,150,2013-01-01 08:15:00
3:35 AM,46.4,37.4,71,30.08,10.0,SE,6.9,-,N/A,,Overcast,140,2013-01-01 08:35:00
4:15 AM,46.4,37.4,71,30.07,10.0,SSE,4.6,-,N/A,,Drizzle,160,2013-01-01 09:15:00
4:35 AM,46.4,39.2,76,30.06,10.0,SE,6.9,-,N/A,,Drizzle,140,2013-01-01 09:35:00
5:15 AM,44.6,42.8,93,30.06,7.0,Calm,Calm,-,N/A,Rain,Light Rain,0,2013-01-01 10:15:00
5:35 AM,44.6,42.8,93,30.07,10.0,Calm,Calm,-,N/A,Rain,Light Rain,0,2013-01-01 10:35:00
5:55 AM,44.6,44.6,100,30.07,2.5,Calm,Calm,-,N/A,,Unknown,0,2013-01-01 10:55:00
6:15 AM,42.8,42.8,100,30.08,2.5,Calm,Calm,-,0.01,,Unknown,0,2013-01-01 11:15:00
6:35 AM,42.8,42.8,100,30.08,2.5,Calm,Calm,-,0.02,,Unknown,0,2013-01-01 11:35:00
6:55 AM,42.8,42.8,100,30.08,2.0,Calm,Calm,-,0.02,,Unknown,0,2013-01-01 11:55:00
7:15 AM,42.8,42.8,100,30.09,2.5,NW,3.5,-,0.01,Rain,Rain,320,2013-01-01 12:15:00
7:35 AM,42.8,42.8,100,30.10,3.0,NW,3.5,-,0.01,Rain,Rain,310,2013-01-01 12:35:00
7:55 AM,42.8,42.8,100,30.10,3.0,Calm,Calm,-,0.01,Rain,Light Rain,0,2013-01-01 12:55:00
8:15 AM,42.8,42.8,100,30.09,3.0,Calm,Calm,-,N/A,Rain,Light Rain,0,2013-01-01 13:15:00
8:35 AM,42.8,42.8,100,30.09,2.5,Calm,Calm,-,0.01,Rain,Light Rain,0,2013-01-01 13:35:00
8:55 AM,42.8,42.8,100,30.08,2.0,Calm,Calm,-,0.01,Rain,Light Rain,0,2013-01-01 13:55:00
9:15 AM,42.8,42.8,100,30.08,2.5,Calm,Calm,-,N/A,Rain,Light Rain,0,2013-01-01 14:15:00
9:35 AM,42.8,42.8,100,30.07,2.5,Calm,Calm,-,N/A,Rain,Rain,0,2013-01-01 14:35:00
10:15 AM,44.6,44.6,100,30.08,3.0,Calm,Calm,-,N/A,Rain,Rain,0,2013-01-01 15:15:00
10:35 AM,44.6,44.6,100,30.09,3.0,SW,3.5,-,N/A,Rain,Light Rain,230,2013-01-01 15:35:00
10:55 AM,44.6,44.6,100,30.08,4.0,Calm,Calm,-,N/A,Rain,Rain,0,2013-01-01 15:55:00
11:15 AM,44.6,44.6,100,30.07,3.0,Calm,Calm,-,N/A,Rain,Light Rain,0,2013-01-01 16:15:00
11:35 AM,44.6,44.6,100,30.07,2.5,Calm,Calm,-,0.01,Rain,Rain,0,2013-01-01 16:35:00
12:15 PM,44.6,44.6,100,30.05,2.0,South,3.5,-,N/A,Rain,Rain,180,2013-01-01 17:15:00
12:35 PM,46.4,46.4,100,30.05,3.0,Calm,Calm,-,N/A,Rain,Light Rain,0,2013-01-01 17:35:00
12:55 PM,46.4,46.4,100,30.03,2.5,Calm,Calm,-,0.01,Rain,Light Rain,0,2013-01-01 17:55:00
1:15 PM,46.4,46.4,100,30.03,2.5,Calm,Calm,-,N/A,Rain,Rain,0,2013-01-01 18:15:00
1:35 PM,46.4,46.4,100,30.01,2.5,Calm,Calm,-,N/A,Rain,Light Rain,0,2013-01-01 18:35:00
2:15 PM,46.4,46.4,100,30.00,4.0,Calm,Calm,-,N/A,Rain,Light Rain,0,2013-01-01 19:15:00
2:35 PM,48.2,48.2,100,29.98,4.0,Calm,Calm,-,N/A,Rain,Light Rain,0,2013-01-01 19:35:00
2:55 PM,48.2,48.2,100,30.00,4.0,Calm,Calm,-,N/A,Rain,Light Rain,0,2013-01-01 19:55:00
3:15 PM,48.2,48.2,100,29.97,3.0,Calm,Calm,-,N/A,Rain,Light Rain,0,2013-01-01 20:15:00
3:35 PM,48.2,48.2,100,29.99,4.0,Calm,Calm,-,0.01,Rain,Light Rain,0,2013-01-01 20:35:00
4:15 PM,48.2,48.2,100,29.98,4.0,Calm,Calm,-,N/A,Rain,Light Rain,0,2013-01-01 21:15:00
4:35 PM,48.2,48.2,100,29.99,5.0,Calm,Calm,-,N/A,Rain,Light Rain,0,2013-01-01 21:35:00
5:15 PM,48.2,48.2,100,29.98,4.0,Calm,Calm,-,N/A,Rain,Light Rain,0,2013-01-01 22:15:00
5:35 PM,48.2,48.2,100,29.97,5.0,Calm,Calm,-,N/A,Rain,Light Rain,0,2013-01-01 22:35:00
5:55 PM,48.2,48.2,100,29.97,2.5,Calm,Calm,-,N/A,Rain,Rain,0,2013-01-01 22:55:00
6:15 PM,48.2,48.2,100,29.97,4.0,Calm,Calm,-,N/A,,Overcast,0,2013-01-01 23:15:00
6:35 PM,46.4,46.4,100,29.98,2.0,Calm,Calm,-,N/A,Rain,Light Rain,0,2013-01-01 23:35:00
6:55 PM,46.4,46.4,100,30.00,3.0,Calm,Calm,-,N/A,Rain,Rain,0,2013-01-01 23:55:00
7:15 PM,48.2,48.2,100,30.00,3.0,Calm,Calm,-,N/A,Rain,Light Rain,0,2013-01-02 00:15:00
7:35 PM,48.2,48.2,100,29.99,3.0,Calm,Calm,-,0.01,Rain,Light Rain,0,2013-01-02 00:35:00
7:55 PM,48.2,48.2,100,30.00,4.0,Calm,Calm,-,0.01,,Drizzle,0,2013-01-02 00:55:00
8:15 PM,48.2,48.2,100,30.00,5.0,NNW,5.8,-,N/A,Rain,Light Rain,340,2013-01-02 01:15:00
8:35 PM,48.2,48.2,100,30.00,5.0,NNW,4.6,-,N/A,Rain,Rain,340,2013-01-02 01:35:00
8:55 PM,48.2,48.2,100,29.99,5.0,NNW,4.6,-,N/A,,Drizzle,340,2013-01-02 01:55:00
9:15 PM,48.2,48.2,100,30.00,5.0,North,8.1,-,N/A,Rain,Rain,350,2013-01-02 02:15:00
9:35 PM,46.4,46.4,100,30.02,5.0,NNW,9.2,-,N/A,Rain,Light Rain,340,2013-01-02 02:35:00
9:55 PM,46.4,46.4,100,30.02,7.0,NNW,6.9,-,N/A,Rain,Light Rain,340,2013-01-02 02:55:00
10:15 PM,46.4,46.4,100,30.01,10.0,NNW,4.6,-,N/A,Rain,Light Rain,340,2013-01-02 03:15:00
10:35 PM,46.4,46.4,100,30.00,10.0,North,3.5,-,N/A,Rain,Light Rain,10,2013-01-02 03:35:00
10:55 PM,46.4,46.4,100,30.00,10.0,Calm,Calm,-,N/A,Rain,Rain,0,2013-01-02 03:55:00
11:15 PM,46.4,46.4,100,29.99,10.0,Calm,Calm,-,N/A,Rain,Light Rain,0,2013-01-02 04:15:00
11:35 PM,46.4,46.4,100,30.00,7.0,WNW,4.6,-,N/A,Rain,Light Rain,300,2013-01-02 04:35:00
11:55 PM,46.4,46.4,100,30.00,10.0,NW,3.5,-,N/A,,Overcast,310,2013-01-02 04:55:00